• Processing (Info)

  • MPEC 2014-E45 : 2014 ES3

    The following Minor Planet Electronic Circular may be linked-to from your own Web pages, but must not otherwise be redistributed electronically.

    A form allowing access to any MPEC is at the bottom of this page.


    Read MPEC 2014-E44 Read MPEC 2014-E46


    M.P.E.C. 2014-E45                                Issued 2014 Mar. 7, 20:49 UT
    
         The Minor Planet Electronic Circulars contain information on unusual
             minor planets and routine data on comets.  They are published
       on behalf of Commission 20 of the International Astronomical Union by the
              Minor Planet Center, Smithsonian Astrophysical Observatory,
                              Cambridge, MA 02138, U.S.A.
    
                 Prepared using the Tamkin Foundation Computer Network
    
                                  MPC@CFA.HARVARD.EDU
                URL https://www.minorplanetcenter.net/    ISSN 1523-6714
    
                                       2014 ES3
    
    Observations:
         K14E03S* C2014 03 06.45534 12 13 09.926-06 01 59.39         20.5 wLEE045F51
         K14E03S  C2014 03 06.46726 12 13 16.383-06 02 12.95         20.7 wLEE045F51
         K14E03S KC2014 03 07.26315 12 21 03.80 -06 16 21.4          20.4 RoEE045291
         K14E03S KC2014 03 07.26405 12 21 04.23 -06 16 21.8          20.1 RoEE045291
         K14E03S KC2014 03 07.26497 12 21 04.69 -06 16 22.7          19.9 RoEE045291
         K14E03S KC2014 03 07.33453312 21 35.32 -06 17 48.4          20.8 VqEE045H21
         K14E03S KC2014 03 07.33907812 21 37.53 -06 17 52.9          21.4 VqEE045H21
         K14E03S KC2014 03 07.34362712 21 39.79 -06 17 57.4          21.4 VqEE045H21
         K14E03S KC2014 03 07.34815412 21 42.00 -06 18 00.5          20.7 VqEE045H21
         K14E03S _C2014 03 07.38896612 22 13.286-06 17 49.70         20.2 RtEE045568
         K14E03S _C2014 03 07.39273312 22 15.113-06 17 53.31         20.3 RtEE045568
         K14E03S _C2014 03 07.39524212 22 16.343-06 17 55.74         20.2 RtEE045568
    
    Observer details:
    291 LPL/Spacewatch II.  Observer R. A. Mastaler.  1.8-m f/2.7 reflector + CCD.
    568 Mauna Kea.  Observers R. J. Wainscoat, D. Woodworth.  Measurers M. Micheli,
        R. J. Wainscoat.  3.6-m Canada-France-Hawaii Telescope + CCD.
    F51 Pan-STARRS 1, Haleakala.  Observers N. Primak, A. Schultz, T. Goggia,
        M. Willman.  Measurer PS1 Science Consortium.  1.8-m Ritchey-Chretien
        + CCD.
    H21 Astronomical Research Observatory, Westfield.  Observer R. Holmes.
        Measurers T. Vorobjov, L. Buzzi, S. Foglia, T. Linder.  0.61-m f/4.0
        astrograph + CCD.
    
    Orbital elements:
    2014 ES3                                                 Earth MOID = 0.0240 AU
    Epoch 2013 Nov. 4.0 TT = JDT 2456600.5                  MPC
    M 322.62161              (2000.0)            P               Q
    n   0.36562348     Peri.  326.52449     -0.79900757     -0.60131971
    a   1.9369273      Node   176.51030     +0.55601906     -0.73958603
    e   0.4785151      Incl.    1.15216     +0.22897532     -0.30236917
    P   2.70           H   26.0           G   0.15           U   7
    Residuals in seconds of arc
    140306 F51  0.1-  0.0     140307 291  0.1-  0.2+    140307 H21  0.4-  0.6+
    140306 F51  0.1+  0.0     140307 H21  0.4+  0.2+    140307 568  0.2+  0.3-
    140307 291  0.3+  0.3-    140307 H21  0.2-  0.1-    140307 568  0.1-  0.1-
    140307 291  0.1-  0.2+    140307 H21  0.0   0.4-    140307 568  0.0   0.1-
    
    Ephemeris:
    2014 ES3                 a,e,i = 1.94, 0.48, 1                   q = 1.0101
    Date    TT    R. A. (2000) Decl.     Delta      r     Elong.  Phase     V
    2014 02 05    04 35 22.8 +10 36 58   0.07284 1.0159   112.4    63.8    22.6
    ...
    2014 02 20    07 11 20.2 +06 19 59   0.03309 1.0124   135.0    43.6    20.3
    ...
    2014 02 28    10 32 35.2 -02 14 42   0.03307 1.0231   169.3    10.4    19.3
    ...
    2014 03 06    12 08 20.4 -05 51 45   0.04715 1.0365   160.4    18.8    20.4
    2014 03 07    12 18 29.3 -06 10 17   0.05010 1.0392   159.1    19.9    20.6
    2014 03 08    12 27 27.2 -06 25 39   0.05316 1.0420   158.1    20.8    20.7
    ...
    2014 03 14    13 03 38.8 -07 15 10   0.07323 1.0612   155.7    22.7    21.5
    ...
    2014 03 22    13 26 06.2 -07 27 45   0.1031  1.0928   158.4    19.6    22.2
    ...
    2014 04 06    13 38 31.7 -07 08 43   0.1684  1.1668   170.1     8.5    23.1
    
    A. U. Tomatic                (C) Copyright 2014 MPC           M.P.E.C. 2014-E45
    

    Read MPEC 2014-E44 Read MPEC 2014-E46


    MPEC number:

    Enter an MPEC number in one of the following forms:

    • 1997-B01 (the full form)
    • J97B01 (the packed version of the full form)
    • B01 (the abbreviated form)